Location: Bennemühlen
(52.5740°N, 9.7135°E)
Time: 06:38:12
(UTC+00:00)

A-11 Canister half - Pass Details

Date: 21 February 2026
Orbit: 1512 x 1687 km, 47.2° (Epoch: 8 March)

Event Time Altitude Azimuth Distance (km) Brightness Sun altitude
Rises 01:54:05 0° 286° (WNW) 4,892 - -39.5°
Reaches altitude 10° 01:57:43 10° 277° (W) 3,880 - -39.1°
Maximum altitude 02:05:53 31° 221° (SW) 2,538 - -38.2°
Drops below altitude 10° 02:13:48 10° 164° (SSE) 3,751 - -37.3°
Exits shadow 02:16:35 - 156° (SSE) 4,511 11.3 -36.9°
Sets 02:17:16 0° 154° (SSE) 4,709 11.5 -36.8°
